Temperature
19 18 18 18 18 18 18 18 18 18 18 18 18 18 18 18 18 18 18 18 18 18 18 18 18 18 18 18 18 18 18 18 18 18 18 18 18 17 17 17 17 17 17
18 18 18 18 18 18 18 18 17 17 17 17 17 17 17 17 17 17 18 18 18 18 18 18 18 18 18 18 18 18 18 18 18 18 18 18 18 17 17 17 17 17 17
18 18 18 18 18 18 17 17 17 17 17 17 17 17 17 17 17 17 17 17 18 18 18 18 18 18 18 18 18 18 18 18 18 18 18 18 18 18 17 17 17 17 17
19 19 18 18 18 17 17 17 17 17 17 17 17 17 17 17 17 17 17 17 18 18 18 18 18 18 18 18 18 18 18 18 18 18 18 18 18 18 18 17 17 17 17
19 19 18 18 18 17 17 17 17 17 17 16 17 17 17 17 17 17 17 17 18 18 18 18 18 18 18 18 18 18 18 18 18 18 18 18 18 18 18 18 17 17 17
19 19 19 18 18 18 17 17 17 16 16 16 16 17 17 17 17 17 17 17 17 18 18 18 18 18 18 18 18 18 18 18 18 18 18 18 18 18 18 18 18 18 17
19 19 19 19 18 18 18 17 17 16 16 16 16 16 17 17 17 17 17 17 17 17 17 17 18 18 18 18 18 17 17 17 17 17 17 17 17 18 18 18 18 18 17
19 19 19 19 19 18 18 17 17 16 16 16 15 15 15 16 17 17 17 17 17 17 17 17 18 18 18 18 18 18 18 17 17 17 17 17 17 17 17 17 18 18 17
19 19 19 19 19 19 18 18 17 17 16 16 15 15 14 14 15 16 17 17 17 17 17 17 18 18 18 18 18 18 18 17 17 17 17 17 17 17 17 17 17 17 17
18 18 18 18 18 18 18 18 17 17 16 16 16 15 14 14 14 14 16 16 16 17 17 17 18 18 18 18 18 17 17 17 17 17 17 17 17 17 17 17 17 17 18
18 18 18 18 18 18 18 18 18 17 17 16 16 15 15 14 14 14 14 16 16 16 16 16 17 17 18 18 18 17 17 17 17 17 17 17 17 17 17 17 17 17 17
17 17 17 17 17 17 17 17 17 17 17 16 16 15 15 14 14 13 13 14 15 16 16 16 16 17 17 17 17 17 17 17 17 17 17 17 17 17 17 17 17 17 17
16 16 16 16 16 16 17 17 17 17 16 16 16 15 15 14 14 14 13 14 14 15 15 15 16 16 16 17 17 17 17 17 17 17 17 17 16 16 16 16 16 16 17
14 14 15 15 15 16 16 16 16 16 16 16 16 15 15 15 14 14 14 13 13 14 14 15 15 15 16 16 16 16 16 16 16 16 16 16 16 16 16 16 16 16 16
13 13 13 14 14 15 15 15 15 15 15 15 15 15 15 15 14 14 14 14 13 13 13 14 14 14 15 15 15 15 15 16 15 15 15 15 15 15 15 15 15 15 15
12 12 12 12 13 13 14 14 14 14 15 15 15 15 15 14 14 14 14 14 13 13 13 13 13 14 14 14 14 14 14 14 14 14 15 15 14 14 14 14 14 14 14
11 11 11 11 12 12 12 13 13 13 14 14 14 14 14 14 14 14 14 14 14 13 13 13 13 13 13 13 13 13 13 14 14 13 14 14 14 13 14 14 14 13 14
10 10 10 10 11 11 12 12 12 13 13 13 14 14 14 14 14 14 14 14 14 14 13 13 13 13 13 13 13 13 13 13 13 13 13 13 13 13 13 13 13 13 13
10 10 10 10 10 10 11 11 11 12 12 13 13 13 13 13 14 14 14 14 14 14 13 13 13 13 13 12 12 12 12 12 12 12 12 12 12 12 12 12 12 13 13
10 10 9 9 9 9 10 10 11 11 12 12 12 13 13 13 14 14 14 14 14 14 13 13 13 13 12 12 12 12 11 11 11 11 11 12 12 12 12 12 12 12 12
10 10 9 9 9 9 9 9 10 10 11 11 12 12 13 13 13 13 14 14 14 13 13 13 12 12 12 12 12 11 11 11 11 11 11 11 11 11 11 11 11 11 12
10 9 9 9 9 9 9 9 9 9 10 10 11 12 12 13 13 13 13 13 13 13 13 13 12 12 12 12 11 11 11 11 10 10 11 10 10 11 11 11 11 11 11
9 9 9 9 9 9 9 9 9 9 9 10 10 11 12 12 13 13 13 13 13 13 13 13 13 12 12 12 11 11 11 11 11 10 10 10 10 10 10 10 10 10 10
9 9 9 9 9 9 9 9 9 9 9 9 10 10 11 12 12 12 13 13 12 12 12 12 13 13 12 12 12 12 11 11 10 10 10 10 10 9 9 9 9 9 9
8 8 8 8 8 8 8 9 8 8 9 9 9 10 10 11 12 12 12 12 12 12 12 12 12 12 12 12 11 11 10 10 9 9 10 10 9 9 9 8 8 8 8
7 8 8 8 8 8 8 8 8 8 8 9 9 10 10 11 11 11 12 12 12 12 12 11 11 11 11 11 11 11 11 11 10 9 9 10 9 9 8 8 8 8 8
Wind_Speed
8 6 4 4 5 6 5 4 5 6 7 7 9 8 8 10 12 13 14 18 19 20 22 22 24 26 26 24 23 23 23 23 24 24 24 24 24 23 23 23 22 22 21
6 6 5 4 3 4 5 4 5 6 5 5 6 7 7 7 9 12 14 16 19 20 21 23 25 26 25 24 24 24 24 24 24 24 25 25 25 24 24 24 23 23 23
7 6 4 4 3 4 4 3 3 3 3 4 5 6 5 5 6 8 12 13 14 17 21 24 25 25 26 26 26 25 25 25 25 25 25 26 26 25 25 25 25 24 24
10 5 4 4 3 2 1 1 1 2 2 3 4 5 5 5 7 7 9 10 12 13 16 22 25 26 27 28 27 27 26 26 25 25 25 26 26 26 26 26 26 25 25
10 5 4 3 2 2 1 1 1 1 1 3 4 5 5 5 6 7 7 8 10 12 14 18 24 27 28 29 28 27 27 26 26 26 26 25 25 25 26 26 26 26 26
9 6 4 4 3 2 1 0 1 1 2 3 4 5 5 6 6 6 8 7 7 11 13 15 16 19 26 28 28 28 27 26 26 26 26 26 25 25 25 25 26 26 26
9 6 5 4 4 3 2 1 1 1 2 1 2 4 5 6 5 5 5 5 5 6 8 10 12 13 13 20 24 25 26 26 26 26 26 26 25 25 25 25 25 25 26
8 7 7 6 5 3 2 0 1 1 1 0 1 2 4 5 4 3 2 3 4 4 5 5 8 10 11 10 14 21 24 26 27 25 25 25 25 25 24 24 24 25 25
7 7 8 7 6 5 4 3 3 3 2 1 2 2 1 3 4 4 3 2 3 3 4 4 4 5 8 9 10 13 19 21 25 23 22 23 23 23 23 24 24 24 25
5 6 8 8 7 6 5 5 4 4 4 2 2 2 3 4 2 4 4 3 4 4 4 4 2 2 3 5 7 10 12 14 16 17 20 21 20 20 20 21 22 23 24
5 6 7 7 8 6 7 6 5 5 4 4 4 3 3 3 4 4 5 5 4 3 3 3 2 1 2 4 5 8 10 10 10 10 14 16 15 15 15 17 19 21 22
3 4 5 6 7 7 7 7 6 6 5 5 5 4 4 4 4 4 5 5 5 4 3 2 1 1 1 4 6 8 10 9 7 6 6 7 8 7 8 10 12 15 18
4 4 4 5 6 7 8 7 6 6 6 6 6 5 5 6 5 4 4 4 4 3 2 2 1 1 2 3 5 8 8 8 8 8 8 7 6 4 3 1 3 7 10
5 5 6 5 5 7 7 7 6 6 6 7 7 7 5 6 5 5 4 3 3 2 1 1 1 1 2 3 6 9 7 10 12 12 12 11 10 9 8 7 6 4 3
5 7 7 7 6 5 6 6 5 7 7 7 7 7 6 6 5 5 5 5 4 3 2 2 0 2 3 5 7 9 9 13 14 14 15 14 14 13 13 12 11 11 10
5 7 7 7 7 7 6 6 6 7 7 7 6 7 7 6 5 5 5 5 6 5 3 2 1 3 5 6 9 10 12 15 15 16 16 16 15 15 14 14 13 13 13
6 6 6 7 7 7 7 6 7 8 8 8 7 7 8 7 5 5 5 5 5 5 5 2 2 4 6 9 8 9 11 10 12 15 16 16 15 15 15 14 14 13 13
7 7 7 7 7 7 7 6 8 8 8 9 8 8 8 7 7 5 5 5 5 5 5 5 4 4 5 10 10 10 8 10 11 14 16 15 15 15 15 14 14 14 15
9 8 7 8 8 7 7 7 7 8 8 9 8 8 8 7 7 5 5 5 4 5 5 6 5 4 4 9 10 10 10 8 10 13 15 15 15 15 15 15 15 15 16
10 10 9 9 9 8 8 7 7 7 7 8 8 8 8 8 8 7 6 5 4 5 6 7 7 6 6 8 10 10 9 7 7 8 10 12 15 16 15 15 15 15 16
12 11 10 9 9 8 8 7 6 6 6 7 7 7 8 10 10 8 6 6 6 6 6 8 8 7 8 10 9 7 10 9 6 5 6 6 6 7 9 12 13 14 15
12 11 10 10 10 9 11 12 8 6 6 7 7 7 7 8 10 10 10 10 10 9 9 8 7 10 10 10 9 12 12 10 5 2 4 5 4 5 4 8 11 13 15
11 11 11 10 10 11 14 14 13 7 7 7 7 7 7 7 8 6 7 8 8 11 12 9 11 11 12 12 13 12 10 7 6 7 5 4 3 4 3 7 10 12 13
9 9 10 10 10 11 14 15 14 8 7 7 7 8 9 8 9 9 7 6 5 6 8 8 9 9 11 12 12 12 11 9 8 6 4 4 3 3 3 5 7 10 12
8 8 7 10 10 11 14 14 13 6 6 7 7 8 10 10 12 13 10 8 7 5 7 11 13 13 15 15 14 11 11 12 10 5 2 4 4 3 2 2 3 6 9
9 9 9 9 10 10 13 15 13 6 6 6 6 7 11 13 15 15 11 11 11 8 10 11 12 13 13 14 15 12 12 13 11 5 4 4 5 4 3 0 0 1 3
Wind_Direction
213 212 212 217 216 211 214 222 229 232 235 237 238 237 238 238 233 234 241 249 253 254 253 246 236 229 224 221 220 219 218 218 218 217 216 216 215 213 212 212 212 211 209
199 201 209 214 217 211 212 214 221 228 232 233 242 245 243 240 234 231 233 241 246 246 246 239 231 229 227 225 223 221 220 220 220 219 219 218 218 217 216 215 215 214 213
185 188 194 209 224 218 214 218 234 232 242 244 251 257 254 245 238 232 232 231 235 239 239 236 232 232 232 230 228 225 223 221 220 220 220 219 219 219 218 217 217 216 215
180 174 182 199 212 194 191 225 255 280 280 279 275 271 267 262 256 246 241 237 233 236 238 238 237 236 236 235 234 230 226 223 221 221 221 221 221 221 220 219 218 217 216
174 163 174 189 173 147 168 230 152 200 262 291 286 275 272 268 262 262 253 244 238 233 232 236 238 238 239 241 240 237 232 227 224 223 222 222 223 222 222 221 220 219 218
167 158 162 163 143 132 125 152 224 222 226 260 293 296 280 270 261 255 257 255 244 239 236 236 236 240 241 242 244 242 238 234 231 228 225 224 224 223 222 222 221 221 220
164 160 159 156 142 146 176 203 218 277 286 288 337 314 298 281 272 264 266 271 266 257 247 237 233 234 238 239 243 244 242 241 237 233 231 227 226 224 223 222 222 222 222
168 167 161 162 160 159 164 167 172 189 271 293 175 313 328 332 334 307 305 299 302 304 285 263 240 226 228 230 235 237 240 243 242 237 237 233 230 227 224 223 222 222 222
175 168 171 170 175 173 187 199 194 186 212 266 198 187 245 284 309 307 298 310 328 321 306 299 259 229 224 222 229 234 239 240 242 240 241 239 234 229 227 225 224 224 223
198 185 181 182 186 186 191 202 194 188 180 223 264 221 212 210 251 306 311 307 319 319 312 309 296 240 212 205 216 224 232 238 238 243 246 241 235 229 226 226 227 227 226
232 214 200 193 196 195 197 199 201 208 198 201 211 224 244 239 218 230 289 312 323 311 311 295 276 242 200 187 195 210 210 215 223 233 243 235 226 223 225 229 233 234 230
293 266 235 215 207 202 204 204 205 211 214 217 218 212 215 227 226 220 253 292 305 306 316 310 253 208 188 170 179 191 197 188 188 190 201 204 208 213 224 232 239 243 241
322 311 281 241 222 213 211 206 205 216 217 222 225 226 224 226 222 220 238 264 277 295 313 341 301 181 167 157 159 161 165 153 143 138 128 122 124 130 143 201 244 254 252
314 315 316 284 252 229 220 210 212 220 222 226 234 232 231 234 221 214 215 230 274 288 291 281 352 108 126 123 124 122 122 126 124 119 112 107 102 98 95 87 76 64 54
321 334 331 321 304 274 247 228 225 227 225 229 235 237 237 239 229 222 212 202 209 244 261 229 161 100 111 107 116 115 118 119 117 112 107 103 99 94 90 86 82 77 75
310 320 326 325 322 311 287 258 246 241 234 236 235 237 239 239 235 228 219 211 205 206 220 210 193 144 133 123 115 112 113 112 107 105 103 100 97 94 90 86 82 78 77
285 296 302 306 307 305 302 285 265 252 242 242 242 236 238 233 234 235 226 218 208 197 211 204 180 148 135 131 119 112 108 103 103 103 103 100 98 95 91 87 83 81 80
264 269 276 284 290 295 299 297 291 279 258 247 242 236 239 236 232 232 228 225 213 195 188 185 170 155 140 140 130 120 110 104 102 103 102 101 98 95 91 88 85 82 80
251 256 258 263 269 276 281 284 286 286 274 256 241 231 232 225 231 231 228 226 213 196 180 170 165 146 135 140 129 117 111 105 101 103 97 95 95 93 91 89 86 83 82
240 245 247 250 255 262 268 273 279 284 283 271 251 232 224 218 221 221 224 219 197 178 169 164 157 149 142 140 133 129 120 111 106 102 95 95 94 90 89 90 89 88 87
239 238 240 244 247 251 256 256 262 280 286 285 269 240 224 218 213 210 211 205 182 175 170 165 158 152 150 151 144 136 129 117 95 102 104 88 83 77 75 83 89 93 93
238 236 235 237 241 249 253 257 259 265 272 276 271 253 230 214 211 210 211 203 186 177 176 170 164 162 159 150 140 142 138 134 122 142 110 93 79 78 65 78 92 97 98
234 233 233 231 234 240 246 252 257 253 256 264 260 247 227 209 194 191 195 191 189 184 177 171 166 164 160 156 149 148 149 138 129 154 128 100 77 76 62 82 94 98 100
225 228 231 229 230 239 239 243 249 247 248 255 254 242 224 200 194 182 171 163 160 163 168 166 160 156 154 153 152 150 144 119 110 131 121 113 107 88 65 60 83 97 101
224 224 224 224 225 237 239 240 241 235 241 253 259 250 223 201 193 178 167 157 144 138 137 139 138 139 143 146 146 142 141 138 140 149 136 113 126 99 70 39 51 95 102
226 226 227 223 222 230 237 237 234 219 235 250 262 257 224 202 187 177 170 161 153 146 135 127 124 127 136 145 150 154 155 151 146 149 174 124 141 129 109 342 21 91 98
Height
1521 1521 1522 1522 1522 1522 1522 1522 1522 1522 1522 1522 1522 1522 1522 1523 1524 1524 1525 1526 1527 1527 1528 1528 1528 1530 1532 1533 1534 1535 1537 1538 1540 1542 1544 1547 1549 1551 1552 1554 1556 1558 1560
1518 1519 1519 1519 1519 1519 1519 1519 1518 1518 1518 1518 1518 1518 1518 1519 1519 1519 1520 1521 1521 1522 1523 1523 1524 1526 1527 1529 1530 1531 1533 1534 1536 1538 1540 1543 1545 1547 1549 1551 1553 1555 1557
1515 1516 1516 1516 1516 1516 1515 1515 1515 1515 1514 1514 1514 1513 1513 1513 1514 1514 1514 1515 1515 1516 1517 1518 1519 1520 1522 1524 1525 1526 1528 1530 1532 1534 1536 1539 1541 1543 1545 1547 1549 1552 1554
1514 1514 1513 1513 1513 1513 1512 1512 1511 1511 1510 1510 1509 1509 1509 1508 1508 1508 1508 1509 1509 1510 1511 1512 1514 1515 1517 1518 1520 1522 1524 1526 1528 1530 1532 1534 1537 1539 1541 1543 1545 1548 1550
1511 1511 1511 1510 1510 1510 1509 1508 1508 1507 1506 1506 1505 1504 1503 1503 1503 1503 1503 1503 1503 1504 1505 1506 1508 1509 1510 1513 1514 1516 1519 1521 1524 1526 1528 1530 1532 1535 1537 1539 1541 1544 1546
1508 1509 1509 1508 1507 1507 1505 1505 1504 1504 1503 1502 1501 1500 1498 1497 1497 1497 1498 1498 1498 1499 1499 1501 1502 1503 1505 1507 1509 1511 1513 1515 1518 1521 1523 1525 1528 1530 1533 1535 1537 1539 1541
1506 1507 1506 1505 1504 1503 1502 1501 1501 1500 1499 1498 1497 1495 1494 1493 1493 1493 1493 1493 1494 1494 1494 1495 1496 1498 1499 1501 1504 1505 1507 1509 1512 1515 1517 1520 1523 1525 1528 1530 1533 1535 1537
1503 1504 1504 1503 1502 1501 1499 1498 1497 1497 1496 1495 1494 1492 1490 1489 1488 1489 1490 1490 1490 1490 1490 1490 1490 1492 1494 1496 1498 1500 1502 1504 1506 1509 1511 1514 1517 1520 1523 1525 1527 1530 1532
1500 1500 1501 1500 1499 1498 1497 1495 1494 1494 1493 1492 1492 1491 1489 1486 1484 1483 1485 1486 1486 1486 1486 1485 1485 1486 1488 1490 1492 1495 1497 1498 1501 1503 1506 1508 1511 1514 1517 1520 1522 1524 1526
1496 1496 1496 1496 1496 1495 1494 1492 1492 1491 1490 1489 1488 1488 1488 1486 1484 1480 1480 1482 1482 1482 1481 1481 1481 1482 1483 1485 1488 1490 1492 1494 1496 1498 1500 1503 1506 1508 1511 1513 1516 1518 1520
1491 1491 1492 1492 1492 1492 1491 1489 1489 1488 1487 1485 1484 1484 1484 1483 1481 1480 1477 1476 1477 1478 1478 1477 1477 1478 1479 1481 1483 1485 1487 1489 1491 1492 1496 1498 1500 1503 1505 1507 1509 1511 1513
1486 1486 1486 1487 1487 1487 1487 1486 1485 1484 1484 1482 1481 1480 1479 1479 1477 1476 1475 1473 1473 1473 1474 1474 1474 1474 1476 1477 1479 1480 1483 1485 1486 1488 1491 1493 1495 1497 1500 1502 1503 1504 1506
1480 1480 1480 1480 1481 1481 1481 1481 1481 1480 1479 1478 1477 1476 1475 1475 1474 1473 1471 1470 1470 1470 1470 1470 1471 1471 1472 1474 1475 1477 1479 1481 1483 1484 1486 1488 1490 1492 1494 1496 1497 1498 1499
1474 1474 1473 1474 1474 1475 1475 1476 1475 1475 1475 1474 1473 1472 1471 1470 1469 1468 1468 1467 1466 1466 1467 1468 1468 1468 1470 1471 1472 1473 1475 1478 1480 1481 1483 1484 1486 1488 1489 1490 1491 1492 1493
1468 1467 1467 1467 1467 1468 1468 1469 1469 1470 1469 1469 1468 1467 1466 1466 1465 1464 1463 1464 1464 1463 1464 1464 1465 1466 1467 1468 1469 1471 1473 1475 1477 1478 1480 1481 1482 1484 1485 1486 1487 1488 1489
1463 1462 1461 1460 1460 1461 1462 1462 1462 1463 1463 1463 1463 1462 1462 1461 1460 1459 1459 1459 1459 1460 1460 1461 1462 1463 1464 1466 1467 1469 1471 1473 1475 1477 1478 1479 1480 1482 1483 1484 1485 1485 1486
1458 1457 1455 1454 1454 1454 1454 1455 1455 1456 1456 1457 1457 1456 1456 1456 1455 1455 1454 1453 1453 1454 1456 1457 1459 1461 1462 1464 1465 1467 1469 1471 1473 1475 1477 1478 1480 1481 1482 1483 1484 1485 1485
1453 1451 1450 1449 1448 1447 1447 1447 1448 1448 1449 1449 1450 1451 1450 1451 1450 1450 1449 1448 1448 1449 1451 1452 1455 1457 1459 1462 1464 1466 1468 1470 1473 1475 1477 1478 1480 1481 1482 1483 1484 1485 1486
1447 1446 1445 1443 1442 1441 1441 1440 1440 1441 1441 1442 1443 1444 1444 1445 1445 1444 1444 1443 1443 1444 1446 1448 1450 1454 1456 1459 1462 1465 1467 1470 1472 1475 1477 1478 1480 1481 1483 1484 1485 1486 1486
1441 1440 1439 1437 1436 1435 1434 1434 1434 1434 1434 1435 1436 1437 1438 1439 1439 1439 1438 1438 1438 1439 1441 1443 1446 1450 1453 1456 1460 1462 1466 1470 1472 1475 1477 1479 1481 1483 1484 1485 1486 1487 1487
1432 1432 1431 1431 1430 1429 1428 1428 1427 1427 1427 1428 1429 1430 1431 1433 1433 1434 1433 1433 1433 1434 1436 1439 1442 1446 1449 1453 1457 1461 1464 1469 1472 1476 1478 1480 1482 1484 1485 1487 1487 1488 1488
1424 1424 1423 1423 1423 1423 1422 1422 1421 1421 1421 1421 1422 1423 1425 1426 1427 1428 1428 1428 1429 1430 1432 1434 1437 1441 1445 1450 1454 1458 1463 1466 1471 1476 1479 1481 1484 1486 1487 1488 1489 1490 1490
1414 1414 1414 1415 1415 1415 1416 1415 1415 1415 1414 1414 1415 1416 1418 1420 1421 1423 1423 1424 1425 1426 1429 1431 1433 1437 1442 1446 1451 1456 1462 1466 1469 1475 1479 1481 1485 1487 1489 1490 1490 1491 1492
1404 1405 1405 1406 1406 1407 1408 1408 1409 1408 1408 1408 1409 1410 1412 1413 1415 1417 1419 1420 1421 1423 1425 1429 1432 1436 1441 1446 1451 1456 1461 1467 1472 1477 1480 1482 1486 1488 1490 1491 1492 1493 1494
1394 1395 1396 1397 1398 1399 1400 1401 1402 1401 1401 1402 1402 1404 1405 1407 1410 1412 1414 1416 1418 1420 1424 1428 1431 1435 1441 1446 1451 1456 1461 1466 1471 1476 1481 1483 1486 1488 1491 1493 1494 1495 1495
1384 1385 1386 1388 1389 1391 1392 1393 1394 1395 1395 1396 1396 1397 1399 1401 1404 1407 1410 1413 1415 1417 1421 1425 1430 1435 1440 1445 1450 1455 1459 1464 1468 1475 1480 1483 1485 1488 1491 1494 1495 1496 1497